This is the latest recevied weather packets stored in our database for station/object SP4LIN-15. If no packets are shown the sender has not sent any weather packets the latest 10 day(s).
| Time | Temp. | Humidity | Pressure | Rain* | Wind** | Luminosity | Snow |
|---|---|---|---|---|---|---|---|
| 1778173739 | 8.33° C | 80% | 1007.3 hPa | 0 mm | - | - | - |
| 1778172839 | 8.33° C | 80% | 1007.7 hPa | 0 mm | - | - | - |
| 1778171939 | 8.33° C | 80% | 1007.7 hPa | 0 mm | - | - | - |
| 1778171039 | 8.33° C | 79% | 1007.6 hPa | 0 mm | - | - | - |
| 1778170139 | 8.33° C | 79% | 1007.5 hPa | 0 mm | - | - | - |
| 1778169239 | 8.33° C | 78% | 1007.6 hPa | 0 mm | - | - | - |
| 1778168339 | 8.89° C | 77% | 1007.6 hPa | 0 mm | - | - | - |
| 1778167439 | 8.89° C | 76% | 1007.5 hPa | 0 mm | - | - | - |
| 1778166539 | 8.89° C | 75% | 1007.3 hPa | 0 mm | - | - | - |
| 1778165639 | 10° C | 74% | 1007.3 hPa | 0 mm | - | - | - |
| 1778164739 | 10° C | 74% | 1007.7 hPa | 0 mm | - | - | - |
| 1778163839 | 10.56° C | 73% | 1007.1 hPa | 0 mm | - | - | - |
| 1778162939 | 10.56° C | 72% | 1006.9 hPa | 0 mm | - | - | - |
| 1778162055 | 10° C | 75% | 1007.1 hPa | 0 mm | - | - | - |
| 1778161139 | 10° C | 74% | 1007.1 hPa | 0 mm | - | - | - |
| 1778160239 | 10.56° C | 72% | 1006.8 hPa | 0 mm | - | - | - |
| 1778159339 | 11.11° C | 73% | 1006.5 hPa | 0 mm | - | - | - |
| 1778158439 | 11.11° C | 73% | 1006.5 hPa | 0 mm | - | - | - |
| 1778157539 | 11.11° C | 73% | 1006.4 hPa | 0 mm | - | - | - |
| 1778156639 | 11.11° C | 74% | 1006.1 hPa | 0 mm | - | - | - |
| 1778155739 | 10° C | 77% | 1006.1 hPa | 0 mm | - | - | - |
| 1778154839 | 9.44° C | 79% | 1006.3 hPa | 0 mm | - | - | - |
| 1778153939 | 8.89° C | 79% | 1006.2 hPa | 0 mm | - | - | - |
| 1778153039 | 8.89° C | 80% | 1006.1 hPa | 0 mm | - | - | - |
| 1778152139 | 8.89° C | 80% | 1005.9 hPa | 0 mm | - | - | - |
* Rain latest hour (hover to see other rain measurements)
** Current wind speed in m/s (hover to see current wind gust speed)